NTR111 NTTM-NTTB

Flight info

Callsign NTR111
Flight time N/A
Altitude 12000
Route VAITE3N VAITE DCT HHN RU1B
Aircraft AT76/M-SDFGIRY/S

Departure

Time N/A
Airport Moorea Temae Airport (NTTM)

Arrival

Time 2026-04-18 10:27
Airport Bora Bora Airport (NTTB)
Time Latitude Longitude Altitude Speed Heading
2026-04-18 10:16 -16.36672 -151.73498 9530 ft 276 kts 325°
2026-04-18 10:16 -16.35139 -151.74650 9149 ft 272 kts 325°
2026-04-18 10:16 -16.33611 -151.75798 8779 ft 268 kts 325°
2026-04-18 10:16 -16.32104 -151.76929 8417 ft 264 kts 325°
2026-04-18 10:17 -16.30682 -151.77994 8090 ft 244 kts 326°
2026-04-18 10:17 -16.29440 -151.79076 7769 ft 223 kts 309°
2026-04-18 10:17 -16.28586 -151.80366 7485 ft 213 kts 303°
2026-04-18 10:17 -16.27789 -151.81694 7206 ft 218 kts 303°
2026-04-18 10:18 -16.26972 -151.83035 6914 ft 217 kts 303°
2026-04-18 10:18 -16.26175 -151.84300 6651 ft 205 kts 305°
2026-04-18 10:18 -16.25568 -151.85564 6359 ft 191 kts 279°
2026-04-18 10:18 -16.25817 -151.86879 6075 ft 186 kts 243°
2026-04-18 10:19 -16.26494 -151.88016 5808 ft 184 kts 230°
2026-04-18 10:19 -16.27320 -151.89014 5543 ft 177 kts 222°
2026-04-18 10:19 -16.28192 -151.89840 5298 ft 168 kts 217°
2026-04-18 10:19 -16.29115 -151.90575 5053 ft 165 kts 212°
2026-04-18 10:20 -16.30050 -151.91251 4813 ft 162 kts 211°
2026-04-18 10:20 -16.30981 -151.91901 4579 ft 160 kts 210°
2026-04-18 10:20 -16.31978 -151.92330 4303 ft 153 kts 174°
2026-04-18 10:20 -16.32872 -151.91896 4071 ft 142 kts 136°
2026-04-18 10:21 -16.33604 -151.91196 3853 ft 142 kts 131°
2026-04-18 10:21 -16.34263 -151.90427 3636 ft 142 kts 126°
2026-04-18 10:21 -16.34864 -151.89614 3417 ft 141 kts 123°
2026-04-18 10:21 -16.35409 -151.88818 3211 ft 129 kts 122°
2026-04-18 10:22 -16.35901 -151.88069 2999 ft 121 kts 122°
2026-04-18 10:22 -16.36364 -151.87365 2799 ft 118 kts 121°
2026-04-18 10:22 -16.36831 -151.86666 2605 ft 116 kts 120°
2026-04-18 10:22 -16.37289 -151.85978 2409 ft 114 kts 121°
2026-04-18 10:23 -16.37724 -151.85299 2217 ft 113 kts 121°
2026-04-18 10:23 -16.38162 -151.84637 2086 ft 108 kts 121°
2026-04-18 10:23 -16.38589 -151.83996 1937 ft 107 kts 120°
2026-04-18 10:23 -16.39013 -151.83361 1790 ft 106 kts 120°
2026-04-18 10:24 -16.39417 -151.82721 1642 ft 106 kts 120°
2026-04-18 10:24 -16.39825 -151.82094 1497 ft 105 kts 121°
2026-04-18 10:24 -16.40233 -151.81465 1358 ft 105 kts 120°
2026-04-18 10:24 -16.40647 -151.80846 1223 ft 103 kts 120°
2026-04-18 10:25 -16.41056 -151.80241 1080 ft 102 kts 121°
2026-04-18 10:25 -16.41463 -151.79641 945 ft 100 kts 120°
2026-04-18 10:25 -16.41869 -151.79046 808 ft 102 kts 120°
2026-04-18 10:25 -16.42278 -151.78439 758 ft 104 kts 118°
2026-04-18 10:26 -16.42691 -151.77793 656 ft 109 kts 117°
2026-04-18 10:26 -16.43102 -151.77126 450 ft 110 kts 120°
2026-04-18 10:26 -16.43544 -151.76469 316 ft 109 kts 121°
2026-04-18 10:26 -16.43822 -151.76039 214 ft 107 kts 124°
2026-04-18 10:27 -16.44399 -151.75190 32 ft 102 kts 119°
2026-04-18 10:27 -16.44659 -151.74780 27 ft 18 kts 123°
2026-04-18 10:27 -16.44719 -151.74692 30 ft 17 kts 127°
2026-04-18 10:27 -16.44791 -151.74603 26 ft 10 kts 146°
2026-04-18 10:28 -16.44809 -151.74578 26 ft 1 kts 34°
2026-04-18 10:28 -16.44787 -151.74594 26 ft 15 kts 313°
2026-04-18 10:28 -16.44704 -151.74723 26 ft 25 kts 303°
2026-04-18 10:28 -16.44608 -151.74869 27 ft 24 kts 304°
2026-04-18 10:29 -16.44529 -151.74986 24 ft 20 kts 305°
2026-04-18 10:29 -16.44447 -151.75113 29 ft 22 kts 305°
2026-04-18 10:29 -16.44384 -151.75203 28 ft 11 kts 302°
2026-04-18 10:29 -16.44398 -151.75270 24 ft 5 kts 213°
2026-04-18 10:30 -16.44450 -151.75307 22 ft 11 kts 214°
2026-04-18 10:30 -16.44500 -151.75343 21 ft 2 kts 215°
2026-04-18 10:30 -16.44522 -151.75340 21 ft 4 kts 149°
2026-04-18 10:30 -16.44534 -151.75324 21 ft 0 kts 125°